TimeMST,TemperatureF,Dew PointF,Humidity,Sea Level PressureIn,VisibilityMPH,Wind Direction,Wind SpeedMPH,Gust SpeedMPH,PrecipitationIn,Events,Conditions,WindDirDegrees,DateUTC
12:53 AM,46.0,34.0,63,30.19,5.0,Calm,Calm,-,N/A,,Haze,0,2012-12-04 07:53:00
1:53 AM,44.1,33.1,65,30.19,10.0,SSE,5.8,-,N/A,,Clear,150,2012-12-04 08:53:00
2:53 AM,46.9,33.1,59,30.19,10.0,Calm,Calm,-,N/A,,Clear,0,2012-12-04 09:53:00
3:53 AM,45.0,33.1,63,30.22,10.0,Calm,Calm,-,N/A,,Clear,0,2012-12-04 10:53:00
4:53 AM,43.0,33.1,68,30.25,10.0,SE,3.5,-,N/A,,Clear,130,2012-12-04 11:53:00
5:53 AM,46.0,33.1,61,30.26,10.0,SSE,3.5,-,N/A,,Clear,150,2012-12-04 12:53:00
6:53 AM,44.1,33.1,65,30.30,9.0,Calm,Calm,-,N/A,,Clear,0,2012-12-04 13:53:00
7:53 AM,45.0,33.1,63,30.32,9.0,Calm,Calm,-,N/A,,Clear,0,2012-12-04 14:53:00
8:53 AM,46.9,33.1,59,30.32,10.0,Calm,Calm,-,N/A,,Clear,0,2012-12-04 15:53:00
9:53 AM,50.0,32.0,50,30.33,10.0,NW,3.5,-,N/A,,Clear,320,2012-12-04 16:53:00
10:53 AM,51.1,34.0,52,30.35,10.0,NNW,4.6,-,N/A,,Clear,340,2012-12-04 17:53:00
11:53 AM,53.1,34.0,48,30.32,10.0,Calm,Calm,-,N/A,,Clear,0,2012-12-04 18:53:00
12:53 PM,55.9,34.0,44,30.30,10.0,Calm,Calm,-,N/A,,Clear,0,2012-12-04 19:53:00
1:53 PM,57.0,34.0,42,30.27,10.0,East,4.6,-,N/A,,Clear,80,2012-12-04 20:53:00
2:53 PM,57.9,33.1,39,30.24,10.0,NE,5.8,-,N/A,,Clear,40,2012-12-04 21:53:00
3:53 PM,59.0,34.0,39,30.26,10.0,NE,5.8,-,N/A,,Clear,50,2012-12-04 22:53:00
4:53 PM,55.9,34.0,44,30.26,10.0,ENE,3.5,-,N/A,,Clear,60,2012-12-04 23:53:00
5:53 PM,53.1,34.0,48,30.26,10.0,Calm,Calm,-,N/A,,Clear,0,2012-12-05 00:53:00
6:53 PM,53.1,33.1,47,30.26,10.0,SSE,4.6,-,N/A,,Clear,150,2012-12-05 01:53:00
7:53 PM,51.1,33.1,50,30.27,10.0,Calm,Calm,-,N/A,,Clear,0,2012-12-05 02:53:00
8:53 PM,48.0,30.0,50,30.26,10.0,Calm,Calm,-,N/A,,Clear,0,2012-12-05 03:53:00
9:53 PM,46.9,33.1,59,30.25,8.0,Calm,Calm,-,N/A,,Clear,0,2012-12-05 04:53:00
10:53 PM,48.0,30.9,52,30.26,9.0,SW,4.6,-,N/A,,Clear,220,2012-12-05 05:53:00
11:53 PM,46.9,30.0,52,30.25,10.0,Calm,Calm,-,N/A,,Clear,0,2012-12-05 06:53:00